[[{"header":{"parameterUnit":"m.s-1","parameterCategory":1,"la1":30.2991,"la2":30.254,"lo1":-89.0895,"lo2":-89.0444,"dy":0.0017,"dx":0.0017,"nx":28,"ny":28,"refTime":"2024-03-16T21:00:00:Z","depth":0,"parameterNumber":2,"parameterNumberName":"U-component_of_WINDS"},"data":[0,0,0,0,0,0,0,0,0,0,0,0,0,0,0,0,0,0,0,0,0,0,0,0,0,0,0,0,0,0,0,0,0,0,0,0,0,0,0,0,0,0,0,0,0,0,0,0,0,0,0,0,0,0,0,0,0,0,0.0434,0.0434,0,0.0495,0.0496,0.0497,0.0535,0.0536,0.0536,0.0536,0.06,0.0601,0.0603,0,0,0,0,0,0,0,0,0,0,0,0,0,0.0349,0.035,0.0434,0.0434,0.0435,0.0495,0.0496,0.0497,0.0535,0.0536,0.0536,0.0536,0.06,0.0601,0.0603,0,0,0,0,0,0,0,0,0,0,0,0,0,0.0396,0.0351,0.0434,0.0462,0.0465,0.0495,0.0496,0.0497,0.0535,0.0536,0.0536,0.0536,0.0599,0.0601,0.0603,0.0611,0,0,0.061,0.0611,0,0,0,0,0,0,0,0,0.0393,0.0399,0.0457,0.046,0.0463,0.0508,0.049,0.0535,0.0535,0.0509,0.0536,0.0536,0.0569,0.0574,0.0585,0.0614,0.0616,0.061,0.0612,0.0613,0.0613,0,0,0,0,0,0,0,0.039,0.0396,0.0458,0.0458,0.0462,0.0471,0.0478,0.0499,0.0536,0.0511,0.0514,0.0521,0.0571,0.0582,0.0587,0.0617,0.061,0.0612,0.0614,0.0615,0.0654,0.0654,0,0,0,0,0,0,0.0382,0.0393,0.0456,0.046,0.0428,0.0472,0.048,0.0493,0.0536,0.0543,0.052,0.0522,0.0578,0.0584,0.0589,0.06,0.0613,0.0615,0.0616,0.0654,0.0654,0.0654,0,0,0,0,0,0,0.038,0.0387,0.0454,0.0428,0.0437,0.0473,0.0488,0.0494,0.0506,0.0543,0.055,0.0525,0.0579,0.0586,0.0605,0.0602,0.0616,0.0618,0.0655,0.0654,0.0654,0.0621,0,0,0,0,0,0,0.0378,0.0386,0.039,0.0427,0.0438,0.0468,0.0488,0.0495,0.051,0.0513,0.055,0.0556,0.058,0.0601,0.0607,0.0606,0.062,0.0655,0.0655,0.0654,0.0623,0.062,0.0617,0,0,0,0,0,0.0374,0.0379,0.039,0.0397,0.0443,0.0468,0.0474,0.0501,0.0509,0.0513,0.0536,0.0555,0.0602,0.0603,0.061,0.0609,0.0655,0.0655,0.0654,0.0624,0.062,0.0617,0,0,0,0,0,0,0.034,0.0384,0.0397,0.0413,0.0437,0.0475,0.048,0.0497,0.0518,0.052,0.0553,0.0561,0.0577,0.0595,0.0595,0.0618,0.0631,0.0631,0.0605,0.0602,0.0599,0.0594,0.0622,0,0,0,0,0,0.0335,0.0351,0.0389,0.04,0.0411,0.0443,0.0455,0.0474,0.0499,0.0509,0.0535,0.0559,0.0579,0.0592,0.0612,0.0625,0.0633,0.0628,0.0625,0.0623,0.0623,0.063,0.0628,0.0652,0.0652,0.0652,0,0,0.0323,0.0349,0.0358,0.0393,0.0414,0.043,0.0451,0.0468,0.048,0.0512,0.0531,0.055,0.058,0.0595,0.0603,0.0611,0.0618,0.0622,0.062,0.0621,0.0629,0.0627,0.0625,0.0651,0.0651,0.0651,0,0,0.0311,0.0332,0.0343,0.0363,0.0393,0.0414,0.0416,0.0452,0.0465,0.0485,0.0509,0.0524,0.0558,0.0577,0.0592,0.0585,0.0602,0.0591,0.0576,0.0583,0.0581,0.0579,0.0576,0.0575,0.0591,0.0591,0.0591,0,0.0293,0.0319,0.0347,0.0362,0.0376,0.0405,0.0416,0.0434,0.0469,0.0478,0.0486,0.0528,0.055,0.057,0.0568,0.0579,0.0582,0.0587,0.0579,0.0578,0.0577,0.0574,0.0573,0.0589,0.0589,0.0589,0.059,0,0.0295,0.0312,0.0317,0.0349,0.0365,0.0377,0.0407,0.0419,0.0436,0.0456,0.0475,0.0502,0.0528,0.0534,0.0551,0.0556,0.056,0.0573,0.0586,0.0572,0.057,0.0569,0.0587,0.0587,0.0588,0.0588,0,0,0.0263,0.031,0.0311,0.0326,0.0361,0.0374,0.0388,0.0413,0.0422,0.0445,0.0457,0.0484,0.0496,0.0512,0.0532,0.0538,0.0529,0.055,0.0551,0.0544,0.0535,0.0524,0.0523,0.0541,0.0541,0.0541,0.0532,0,0.0255,0.0281,0.0306,0.0323,0.0339,0.0366,0.0377,0.04,0.0419,0.0435,0.0456,0.0474,0.0489,0.0499,0.0506,0.0528,0.0527,0.053,0.0552,0.0552,0.0543,0.0522,0.0511,0.0502,0.0532,0.0531,0.0531,0,0.025,0.0271,0.0289,0.032,0.0328,0.0338,0.0362,0.0377,0.0403,0.0416,0.0433,0.0453,0.0469,0.048,0.0501,0.0502,0.0513,0.0525,0.0525,0.0528,0.0541,0.0523,0.05,0.0498,0.0531,0.0531,0.0531,0,0.0224,0.0257,0.0271,0.0283,0.0321,0.0327,0.0343,0.0369,0.0382,0.0403,0.0411,0.0434,0.0446,0.0463,0.0489,0.0495,0.0507,0.0521,0.0518,0.0517,0.0519,0.0518,0.0496,0.0526,0.0526,0.0526,0.0526,0,0.0212,0.0222,0.026,0.0269,0.028,0.0309,0.0319,0.0338,0.036,0.0373,0.0398,0.0409,0.0442,0.0458,0.0478,0.0492,0.0497,0.0508,0.0513,0.0506,0.0504,0.0513,0.0514,0.0526,0.0526,0.0526,0.0526,0,0.0186,0.0211,0.0229,0.0263,0.0271,0.0278,0.0307,0.0316,0.0336,0.0352,0.0357,0.0389,0.0408,0.0435,0.0463,0.0476,0.0487,0.0495,0.0478,0.0481,0.0476,0.0476,0.0458,0.0457,0.0488,0.0488,0.0488,0,0.0176,0.0184,0.0218,0.0228,0.0243,0.0259,0.0272,0.03,0.0312,0.0341,0.0347,0.0368,0.0386,0.0415,0.044,0.0461,0.047,0.0462,0.0474,0.0465,0.0469,0.0468,0.0469,0.046,0.0459,0.0459,0.0459,0,0.0157,0.0169,0.0186,0.0207,0.0222,0.024,0.026,0.0267,0.0299,0.0311,0.0331,0.0344,0.0372,0.0392,0.0416,0.0433,0.0451,0.0455,0.0455,0.0447,0.0436,0.0441,0.047,0.0455,0.0455,0.0456,0.0456,0.0456,0.0138,0.0146,0.017,0.0189,0.0206,0.0223,0.0233,0.0254,0.0271,0.0295,0.031,0.0328,0.0353,0.0387,0.0402,0.0417,0.0424,0.0425,0.0425,0.0425,0.0421,0.0434,0.0421,0.0422,0.0422,0.0422,0.0422,0,0.0119,0.0136,0.0152,0.0178,0.0192,0.0207,0.0229,0.024,0.0255,0.0276,0.0293,0.0315,0.0334,0.036,0.0381,0.0388,0.0396,0.0392,0.0392,0.0395,0.0414,0.0411,0.0385,0.0385,0.0385,0.0385,0.0385,0.0385,0.011,0.0124,0.0139,0.0161,0.0178,0.0195,0.0206,0.0222,0.0239,0.0262,0.0277,0.0294,0.0317,0.034,0.0358,0.0365,0.0371,0.0364,0.0374,0.0391,0.0394,0.0397,0.0395,0.0366,0.0366,0.0354,0.0354,0.0354]},{"header":{"parameterUnit":"m.s-1","parameterCategory":1,"la1":30.2991,"la2":30.254,"lo1":-89.0895,"lo2":-89.0444,"dy":0.0017,"dx":0.0017,"nx":28,"ny":28,"refTime":"2024-03-16T21:00:00:Z","depth":0,"parameterNumber":3,"parameterNumberName":"V-component_of_WINDS"},"data":[0,0,0,0,0,0,0,0,0,0,0,0,0,0,0,0,0,0,0,0,0,0,0,0,0,0,0,0,0,0,0,0,0,0,0,0,0,0,0,0,0,0,0,0,0,0,0,0,0,0,0,0,0,0,0,0,0,0,1.1384,1.1384,0,1.136,1.136,1.1359,1.1334,1.1333,1.1333,1.1333,1.1306,1.1305,1.1305,0,0,0,0,0,0,0,0,0,0,0,0,0,1.1407,1.1407,1.1384,1.1384,1.1384,1.136,1.1359,1.1359,1.1334,1.1333,1.1333,1.1332,1.1306,1.1305,1.1305,0,0,0,0,0,0,0,0,0,0,0,0,0,1.1391,1.1407,1.1384,1.1368,1.1366,1.136,1.1359,1.1359,1.1334,1.1333,1.1333,1.1332,1.1306,1.1306,1.1305,1.1312,0,0,1.1303,1.1303,0,0,0,0,0,0,0,0,1.1392,1.139,1.1371,1.1369,1.1367,1.1349,1.1358,1.1343,1.1334,1.1346,1.1333,1.1332,1.1321,1.1319,1.1315,1.1311,1.131,1.1303,1.1303,1.1303,1.1302,0,0,0,0,0,0,0,1.1393,1.1391,1.1374,1.137,1.1368,1.1361,1.1359,1.1355,1.1337,1.1345,1.1343,1.1341,1.1319,1.1316,1.1314,1.1309,1.1303,1.1303,1.1302,1.1302,1.1309,1.1309,0,0,0,0,0,0,1.1397,1.1392,1.1375,1.1374,1.1379,1.1361,1.1358,1.1356,1.1337,1.1333,1.1341,1.134,1.1317,1.1315,1.1313,1.132,1.1303,1.1302,1.1302,1.1308,1.1309,1.1309,0,0,0,0,0,0,1.1398,1.1396,1.1376,1.1383,1.138,1.1362,1.1359,1.1355,1.1352,1.1334,1.133,1.1341,1.1317,1.1314,1.1313,1.1319,1.1302,1.1301,1.1308,1.1308,1.1309,1.1334,0,0,0,0,0,0,1.1398,1.1396,1.1399,1.1383,1.1379,1.1377,1.1359,1.1355,1.1351,1.1349,1.1333,1.1329,1.1316,1.1314,1.1312,1.1318,1.1301,1.1307,1.1308,1.1309,1.1333,1.1336,1.1339,0,0,0,0,0,1.1399,1.1407,1.1399,1.1397,1.1383,1.1377,1.1375,1.136,1.1352,1.1354,1.1342,1.133,1.1319,1.1314,1.1312,1.1318,1.1306,1.1308,1.1309,1.1332,1.1335,1.1339,0,0,0,0,0,0,1.1424,1.1404,1.1396,1.1399,1.139,1.1373,1.1375,1.1364,1.1357,1.1355,1.1337,1.1333,1.1334,1.1325,1.132,1.1323,1.1311,1.1312,1.1329,1.1332,1.1335,1.1337,1.13,0,0,0,0,0,1.143,1.1427,1.141,1.1414,1.141,1.1394,1.139,1.138,1.137,1.1365,1.1354,1.1344,1.1338,1.1334,1.1328,1.1331,1.1327,1.1334,1.1337,1.134,1.1341,1.1342,1.1345,1.1313,1.1313,1.1313,0,0,1.1441,1.143,1.143,1.1419,1.141,1.1408,1.139,1.1388,1.1386,1.1365,1.1363,1.1354,1.1341,1.1342,1.1342,1.1335,1.1348,1.1341,1.1343,1.1343,1.1343,1.1346,1.1349,1.1314,1.1314,1.1314,0,0,1.1461,1.1453,1.1455,1.1448,1.1436,1.1425,1.1425,1.141,1.1403,1.1401,1.1385,1.1382,1.1372,1.1364,1.1359,1.1376,1.1364,1.1374,1.1389,1.139,1.1392,1.1395,1.1401,1.1403,1.1375,1.1375,1.1375,0,1.1477,1.1473,1.1458,1.1457,1.1452,1.1433,1.1435,1.1428,1.1415,1.1412,1.1405,1.1392,1.1382,1.1381,1.1385,1.1382,1.1381,1.1376,1.1393,1.1395,1.1397,1.1403,1.1405,1.1376,1.1376,1.1376,1.1376,0,1.1494,1.1491,1.1494,1.1482,1.1478,1.1478,1.1462,1.146,1.1449,1.1439,1.1437,1.1424,1.1415,1.1414,1.1404,1.1411,1.1407,1.1397,1.1384,1.1402,1.1407,1.1409,1.1378,1.1378,1.1377,1.1377,0,0,1.1529,1.1508,1.151,1.1504,1.149,1.1487,1.1486,1.1478,1.1476,1.1467,1.1466,1.1458,1.1448,1.1442,1.1431,1.1432,1.1446,1.1421,1.1421,1.1426,1.1453,1.1462,1.1464,1.1438,1.1438,1.1438,1.1454,0,1.1547,1.1545,1.1531,1.1533,1.1531,1.1513,1.1512,1.1503,1.1493,1.1488,1.1477,1.1472,1.146,1.1456,1.1456,1.1444,1.1451,1.1443,1.1436,1.1436,1.144,1.1467,1.1475,1.1491,1.1456,1.1457,1.1457,0,1.1567,1.156,1.1563,1.1548,1.1546,1.1546,1.1537,1.1533,1.1522,1.1515,1.1508,1.1495,1.1493,1.1481,1.1477,1.1472,1.1468,1.1462,1.1462,1.1461,1.1448,1.1467,1.1496,1.1498,1.146,1.1459,1.1459,0,1.1593,1.1584,1.1584,1.158,1.1563,1.1563,1.1556,1.1544,1.154,1.1532,1.1529,1.152,1.1516,1.1509,1.1494,1.1487,1.1492,1.1479,1.1486,1.1486,1.1488,1.1488,1.1517,1.1485,1.1485,1.1485,1.1485,0,1.1614,1.1617,1.1596,1.1596,1.1598,1.1581,1.1583,1.1574,1.1563,1.1561,1.1544,1.1542,1.1523,1.1518,1.1506,1.1505,1.1503,1.1496,1.1493,1.1498,1.1499,1.1496,1.1494,1.1486,1.1486,1.1485,1.1485,0,1.1644,1.163,1.1629,1.1613,1.1609,1.1611,1.1597,1.1596,1.1585,1.1582,1.158,1.1563,1.1557,1.1541,1.1531,1.1522,1.1524,1.1518,1.1529,1.1527,1.1535,1.1534,1.1563,1.1566,1.1532,1.1532,1.1533,0,1.1658,1.166,1.1644,1.1642,1.1635,1.1631,1.1627,1.1611,1.1607,1.1594,1.1595,1.1587,1.1581,1.1572,1.1558,1.1549,1.1543,1.1554,1.1542,1.1547,1.1543,1.1544,1.1544,1.1556,1.1557,1.1557,1.1558,0,1.1686,1.1679,1.1674,1.1667,1.1663,1.1656,1.1648,1.1647,1.1628,1.1624,1.1618,1.1613,1.1602,1.1595,1.1585,1.1577,1.1564,1.1561,1.1563,1.1568,1.1574,1.1571,1.1536,1.1561,1.1561,1.156,1.156,1.156,1.1709,1.1709,1.1698,1.1693,1.1685,1.1679,1.1677,1.1666,1.1661,1.1652,1.1642,1.1637,1.1625,1.161,1.1602,1.1598,1.1591,1.1593,1.1593,1.1594,1.1596,1.1574,1.1596,1.1596,1.1595,1.1595,1.1595,0,1.1736,1.1728,1.1723,1.1713,1.1709,1.1698,1.1689,1.1686,1.1682,1.1672,1.1666,1.1659,1.1652,1.1637,1.1629,1.1628,1.1622,1.1626,1.1626,1.1624,1.1603,1.1603,1.1631,1.1631,1.1631,1.1631,1.1631,1.1631,1.175,1.175,1.1742,1.1737,1.1729,1.1725,1.172,1.1714,1.1706,1.1699,1.1693,1.1684,1.1672,1.1663,1.1655,1.1651,1.1649,1.1655,1.1649,1.1629,1.1626,1.1623,1.1622,1.1655,1.1655,1.1671,1.1671,1.1671]}]]